World > North America > United States > Texas   City of San Angelo, TX

San Angelo, Texas Regional Weather

Lat: 31.45N, Lon: 100.45W
Wx Zone: TXZ072
Warning NWS WEATHER ALERT - EXCESSIVE HEAT WARNING (More Info. Click Here) Warning
Feedback

San Angelo, TX Regional Weather

Expires:202007130500;;764491
ASUS44 KSJT 130415
RWRSJT
WEST CENTRAL TEXAS REGIONAL WEATHER ROUNDUP
NATIONAL WEATHER SERVICE SAN ANGELO TX
1100 PM CDT SUN JUL 12 2020

NOTE: "FAIR" INDICATES FEW OR NO CLOUDS BELOW 12,000 FEET WITH NO
SIGNIFICANT WEATHER AND/OR OBSTRUCTIONS TO VISIBILITY.


TXZ049-054-064>066-071>073-076>078-098-099-113-114-127-128-139-140-
154-155-168>170-130500
...LOCATIONS ACROSS WEST CENTRAL TEXAS...
  
CITY           SKY/WX    TMP DP  RH WIND       PRES   REMARKS
SAN ANGELO     CLEAR     84  58  40 S7        29.90R                  
ABILENE        CLEAR     87  64  46 SE10      29.89R                  
DYESS AFB      CLEAR     83  62  49 S5        29.88R                  
JUNCTION       CLEAR     91  55  29 S7        29.92R                  
SWEETWATER     CLEAR     88  51  28 S8        29.95                   
BROWNWOOD      CLEAR     84  59  42 SE5       29.89R                  
COLEMAN          N/A     88  55  32 S5        29.90                   
SONORA         CLEAR     81  52  36 CALM      29.99R                  
OZONA          FAIR      82  46  28 CALM      29.97R                  
BRADY          CLEAR     90  57  33 S9        29.91R                  
$$

TEXAS PANHANDLE/OKLAHOMA PANHANDLE
  
CITY           SKY/WX    TMP DP  RH WIND       PRES   REMARKS
AMARILLO       MOCLDY    91  45  20 S23G30    29.93R                  
BORGER         PTCLDY    89  60  37 SE21G35   29.89R                  
CANADIAN       MOCLDY    83  67  58 SE18G24   29.91R                  
DALHART        CLOUDY    89  58  34 NW13      30.01R                  
DUMAS          MOCLDY    84  56  38 E13       29.94R                  
GUYMON         NOT AVBL                                               
HEREFORD       CLOUDY    87  52  30 MISG      29.97R                  
PAMPA          PTCLDY    84  61  45 SE21G29   29.95R                  
PERRYTON       MOCLDY    82  61  49 SE16G22   29.93                   
$$

SOUTHERN PANHANDLE/SOUTH PLAINS/ROLLING PLAINS
  
CITY           SKY/WX    TMP DP  RH WIND       PRES   REMARKS
LUBBOCK        PTCLDY    91  41  17 S15       29.93R                  
SNYDER         CLEAR     91  49  23 SE12      29.91                   
CHILDRESS      PTCLDY    86  70  58 SE16G26   29.89R                  
SEMINOLE       CLEAR     89  40  17 S9        30.00R                  
$$

PERMIAN BASIN
  
CITY           SKY/WX    TMP DP  RH WIND       PRES   REMARKS
MIDLAND        CLEAR     92  37  14 S13       29.95R                  
ODESSA         CLEAR     92  37  14 S10       29.97R                  
WINK           CLEAR     93  44  18 SE13      29.91R                  
$$

FAR WEST/SOUTHWEST MOUNTAINS/TRANS PECOS
  
CITY           SKY/WX    TMP DP  RH WIND       PRES   REMARKS
ALPINE         CLEAR     85  48  27 SE6       30.14R                  
DRYDEN           N/A     89  52  28 E8        29.94R                  
EL PASO        PTCLDY    96  40  14 S10       29.96R                  
FORT STOCKTON  CLEAR     89  50  26 SE10      29.96R                  
GUADALUPE PASS PTCLDY    89  30  12 E18G24    30.14R                  
MARFA          CLEAR     78  36  21 E8        30.13R                  
PECOS          CLEAR     93  41  16 SE10      29.90R                  
$$

DALLAS/FORT WORTH METROPLEX
  
CITY           SKY/WX    TMP DP  RH WIND       PRES   REMARKS
DFW AIRPORT    PTCLDY    88  76  67 E8        29.86R                  
FTW MEACHAM    CLEAR     89  74  60 E9        29.86R                  
DAL-EXECUTIVE  CLEAR     88  75  65 SE6       29.87R                  
GRAND PRAIRIE  CLEAR     89  73  59 E7        29.88                   
ADDISON        CLEAR     90  73  58 SE8       29.90R                  
MESQUITE       CLEAR     84  76  76 SE3       29.88                   
LANCASTER      CLEAR     84  76  75 CALM      29.88R                  
$$

NORTH CENTRAL TEXAS
  
CITY           SKY/WX    TMP DP  RH WIND       PRES   REMARKS
SHRMAN/DENISON CLEAR     83  74  72 E5        29.91R                  
GAINESVILLE    CLEAR     82  72  71 E5        29.91R                  
BRIDGEPORT     CLEAR     83  71  67 E3        29.90                   
DENTON         CLEAR     89  72  56 E3        29.88R                  
WAXAHACHIE       N/A     85  76  74 CALM      29.90R                  
GRANBURY       CLEAR     90  74  59 SE9       29.88R                  
$$

WESTERN NORTH TEXAS
  
CITY           SKY/WX    TMP DP  RH WIND       PRES   REMARKS
WICHITA FALLS  CLEAR     83  74  74 E14       29.86S                  
VERNON         CLEAR     87  72  60 SE15      29.86                   
BRECKENRIDGE   CLEAR     91  71  51 SE8       29.87R                  
COMANCHE       CLEAR     84  63  48 SE6       29.90R                  
$$

CENTRAL AND SOUTH CENTRAL TEXAS
  
CITY           SKY/WX    TMP DP  RH WIND       PRES   REMARKS
AUSTIN/BERGSTM PTCLDY    86  69  56 S9        29.88R                  
WACO           PTCLDY    87  70  56 SE7       29.86R                  
HILLSBORO      PTCLDY    87  81  82 E9        29.87R                  
TEMPLE         PTCLDY    87  66  49 S8        29.88R                  
KILLEEN-GRAY   PTCLDY    88  65  45 S7        29.88                   
FORT HOOD      PTCLDY    90  65  42 S7        29.88R                  
GEORGETOWN     PTCLDY   N/A N/A N/A S8        29.89S                  
LAGO VISTA     FAIR      88  65  47 S7        29.92S                  
SAN MARCOS     CLEAR     85  69  58 SE10      29.90R                  
NEW BRAUNFELS  CLEAR     85  66  53 SE5       29.88R                  
RANDOLPH AFB   CLEAR     87  66  49 SE14      29.89                   
SAN ANTONIO    PTCLDY    89  63  41 SE7       29.90R                  
STINSON        CLEAR     86  65  49 SE8       29.87R                  
PLEASANTON     NOT AVBL                                               
LA GRANGE      CLEAR     87  77  72 S9        29.87S                  
GIDDINGS       PTCLDY    90  73  58 S5        29.90R                  
$$

EAST TEXAS
  
CITY           SKY/WX    TMP DP  RH WIND       PRES   REMARKS
PARIS          CLEAR     82  74  76 CALM      29.89R                  
CLARKSVILLE    NOT AVBL                                               
TYLER          PTCLDY    83  77  82 SE3       29.88R                  
LONGVIEW       PTCLDY    81  76  84 CALM      29.87R                  
PALESTINE      MOCLDY    84  80  88 E3        29.90R                  
NACOGDOCHES    MOCLDY    82  80  94 CALM      29.89R                  
$$

TEXAS HILL COUNTRY AND EDWARDS PLATEAU
  
CITY           SKY/WX    TMP DP  RH WIND       PRES   REMARKS
LLANO          CLEAR     88  61  40 SE5       29.88R                  
HORSESHOE BAY  FAIR      90  61  37 S9        29.90R                  
KERRVILLE      CLEAR     83  62  48 CALM      29.95R                  
FREDERICKSBRG  CLEAR     83  58  42 CALM      29.95R                  
ROCKSPRINGS    CLEAR     86  46  25 SE6       30.02R                  
HONDO          CLEAR     90  63  40 SE10      29.89R                  
UVALDE           N/A     91  58  33 SE10      29.90R                  
DEL RIO        CLEAR     96  54  24 SE8       29.84R                  
$$

SOUTHEAST TEXAS
  
CITY           SKY/WX    TMP DP  RH WIND       PRES   REMARKS
COLLEGE STN    PTCLDY    87  73  62 S6        29.88R                  
CALDWELL       PTCLDY    87  71  59 S8        29.89R                  
CROCKETT       NOT AVBL                                               
BRENHAM        PTCLDY    87  75  67 S7        29.89R                  
HUNTSVILLE     CLEAR     86  75  69 S5        29.89R                  
CONROE         PTCLDY    80  76  87 CALM      29.89R                  
HOUSTON BUSH   MOCLDY    88  74  63 S3        29.88R                  
HOUSTON HOBBY  PTCLDY    85  77  77 SW9    
9d7
   29.89R                  
PERLAND        CLEAR     84  76  76 SW6       29.91R                  
WHARTON        CLEAR     80  75  84 S3        29.92R                  
$$

THE UPPER TEXAS COAST
  
CITY           SKY/WX    TMP DP  RH WIND       PRES   REMARKS
ORANGE         CLEAR     83  77  81 SW3       29.91R                  
PORT ARTHUR    CLEAR     80  78  94 SW6       29.89R                  
GALVESTON      CLEAR     84  79  85 SW10      29.91R                  
ANGLETON       CLEAR     80  77  90 SW6       29.91R                  
BAY CITY       CLEAR     80  79  96 S3        29.91R                  
$$

TEXAS COASTAL BEND, RIO GRANDE PLAINS DEEP SOUTH TEXAS
  
CITY           SKY/WX    TMP DP  RH WIND       PRES   REMARKS
VICTORIA       CLEAR     83  77  82 S12       29.91R                  
BEEVILLE       FAIR      82  81  95 SE8       29.90R                  
ROCKPORT       PTCLDY    83  78  85 S8        29.91R                  
PORT ARANSAS   CLEAR     82  79  92 SE8       29.92S                  
PORT LAVACA    NOT AVBL                                               
CORPUS CHRISTI PTCLDY    81  79  94 SE10      29.90R                  
KINGSVILLE NAS CLEAR     84  78  82 SE8       29.89                   
COTULLA        CLEAR     93  67  42 SE9       29.86R                  
LAREDO         CLEAR     93  71  48 SE13      29.85R                  
BROWNSVILLE    CLEAR     83  77  82 S9        29.90R                  
PORT ISABEL    CLEAR     83  77  82 S10       29.89R                  
HEBBRONVILLE   CLEAR     86  73  65 SE8       29.91R                  
MCALLEN        CLEAR     83  74  74 SE13      29.90R                  
WESLACO        NOT AVBL                                               
FALFURRIAS     NOT AVBL                                               
EDINBURG       CLEAR     83  71  68 S10       29.90R                  
$$
  

SKY/WX - Weather  TMP - Temperature  DP - Dew Point  RH - Relative Humidity
WIND - Wind Direction/Speed PRES - Barometric Pressure VSB - Visibility
WCI - Wind Chill Index E13G22 Wind - East Wind 13 mph/Gusts of 22 mph
San Angelo Weather Map
UTC Time: 7/13/2020, 04:32
Your Time: